Location: Bidwell Hollow
(37.7387°N, 90.1707°W)
Time: 22:48:26
(UTC+00:00)

Transit 2A - Pass Details

Date: 12 May 2026
Orbit: 595 x 949 km, 66.7° (Epoch: 6 June)

Event Time Altitude Azimuth Distance (km) Brightness Sun altitude
Rises 05:47:25 0° 349° (N) 3,202 10.3 -34.1°
Reaches altitude 10° 05:52:06 10° 27° (NNE) 2,166 9.0 -34.1°
Maximum altitude 05:53:12 11° 40° (NE) 2,097 8.8 -34.1°
Drops below altitude 10° 05:54:16 10° 53° (NE) 2,117 8.6 -34.1°
Enters shadow 05:55:09 - 63° (ENE) 2,199 8.6 -34.1°
